| time (UTC) | temp C | wind direction | speed KPH | gust KPH | rain 1hr cm | rain 24hr cm | rain mn cm | humidity % | barometer mb |
| 20260508133058 | 4 | 218 | 0.0 | 0.0 | 0.00 | 0.00 | 0.00 | 1 | 1011.4 |
| 20260508132551 | 3 | 218 | 0.0 | 0.0 | 0.00 | 0.00 | 0.00 | 1 | 1011.4 |
| 20260508132050 | 2 | 218 | 0.0 | 0.0 | 0.00 | 0.00 | 0.00 | 1 | 1011.4 |
| 20260508131549 | 2 | 218 | 0.0 | 1.6 | 0.00 | 0.00 | 0.00 | 1 | 1011.4 |
| 20260508131047 | 2 | 218 | 0.0 | 3.2 | 0.00 | 0.00 | 0.00 | 1 | 1011.3 |
| 20260508130546 | 1 | 218 | 1.6 | 3.2 | 0.00 | 0.00 | 0.00 | 1 | 1011.2 |
| 20260508130053 | 1 | 218 | 0.0 | 3.2 | 0.00 | 0.00 | 0.00 | 1 | 1011.3 |
| 20260508125543 | 1 | 218 | 0.0 | 3.2 | 0.00 | 0.00 | 0.00 | 1 | 1011.1 |
| 20260508125042 | 1 | 218 | 0.0 | 3.2 | 0.00 | 0.00 | 0.00 | 1 | 1011.1 |
| 20260508124540 | 1 | 218 | 0.0 | 3.2 | 0.00 | 0.00 | 0.00 | 1 | 1011.1 |
| 20260508124039 | 1 | 218 | 0.0 | 0.0 | 0.00 | 0.00 | 0.00 | 1 | 1010.9 |
| 20260508123538 | 1 | 218 | 0.0 | 3.2 | 0.00 | 0.00 | 0.00 | 1 | 1010.9 |
| 20260508123036 | 1 | 218 | 0.0 | 3.2 | 0.00 | 0.00 | 0.00 | 1 | 1010.8 |
| 20260508122534 | 1 | 218 | 0.0 | 0.0 | 0.00 | 0.00 | 0.00 | 1 | 1010.7 |
| 20260508122033 | 1 | 206 | 0.0 | 3.2 | 0.00 | 0.00 | 0.00 | 1 | 1010.7 |
| 20260508121552 | 1 | 206 | 1.6 | 3.2 | 0.00 | 0.00 | 0.00 | 1 | 1010.7 |
| 20260508121029 | 1 | 206 | 0.0 | 1.6 | 0.00 | 0.00 | 0.00 | 1 | 1010.7 |
| 20260508120528 | 1 | 206 | 0.0 | 0.0 | 0.00 | 0.00 | 0.00 | 1 | 1010.6 |
| 20260508120031 | 1 | 206 | 0.0 | 0.0 | 0.00 | 0.00 | 0.00 | 1 | 1010.6 |
| 20260508115527 | 1 | 206 | 0.0 | 0.0 | 0.00 | 0.00 | 0.00 | 1 | 1010.6 |
| 20260508115024 | 1 | 206 | 0.0 | 0.0 | 0.00 | 0.00 | 0.00 | 1 | 1010.6 |
| 20260508114523 | 1 | 206 | 0.0 | 3.2 | 0.00 | 0.00 | 0.00 | 1 | 1010.5 |
| 20260508114022 | 2 | 206 | 0.0 | 3.2 | 0.00 | 0.00 | 0.00 | 1 | 1010.5 |
| 20260508113521 | 2 | 206 | 0.0 | 0.0 | 0.00 | 0.00 | 0.00 | 1 | 1010.6 |
| 20260508113019 | 2 | 205 | 0.0 | 3.2 | 0.00 | 0.00 | 0.00 | 1 | 1010.4 |
| 20260508112516 | 2 | 205 | 0.0 | 3.2 | 0.00 | 0.00 | 0.00 | 1 | 1010.5 |
| 20260508112015 | 3 | 205 | 0.0 | 3.2 | 0.00 | 0.00 | 0.00 | 1 | 1010.5 |
| 20260508111514 | 3 | 205 | 1.6 | 4.8 | 0.00 | 0.00 | 0.00 | 1 | 1010.4 |
| 20260508111013 | 3 | 205 | 1.6 | 6.4 | 0.00 | 0.00 | 0.00 | 1 | 1010.5 |
| 20260508110512 | 3 | 205 | 3.2 | 8.0 | 0.00 | 0.00 | 0.00 | 1 | 1010.5 |
| 20260508110010 | 3 | 205 | 3.2 | 8.0 | 0.00 | 0.00 | 0.00 | 1 | 1010.4 |
| 20260508105513 | 3 | 225 | 3.2 | 11.3 | 0.00 | 0.00 | 0.00 | 1 | 1010.5 |
| 20260508105008 | 2 | 253 | 3.2 | 11.3 | 0.00 | 0.00 | 0.00 | 1 | 1010.4 |
| 20260508104506 | 2 | 253 | 1.6 | 6.4 | 0.00 | 0.00 | 0.00 | 1 | 1010.4 |
| 20260508104004 | 2 | 253 | 3.2 | 6.4 | 0.00 | 0.00 | 0.00 | 1 | 1010.3 |
| 20260508103503 | 2 | 253 | 1.6 | 6.4 | 0.00 | 0.00 | 0.00 | 1 | 1010.4 |
| 20260508103005 | 2 | 253 | 3.2 | 6.4 | 0.00 | 0.00 | 0.00 | 1 | 1010.4 |
| 20260508102600 | 2 | 253 | 1.6 | 6.4 | 0.00 | 0.00 | 0.00 | 1 | 1010.4 |
| 20260508102059 | 2 | 253 | 3.2 | 6.4 | 0.00 | 0.00 | 0.00 | 1 | 1010.3 |
| 20260508101657 | 2 | 253 | 1.6 | 4.8 | 0.00 | 0.00 | 0.00 | 1 | 1010.2 |
| 20260508101056 | 2 | 253 | 0.0 | 3.2 | 0.00 | 0.00 | 0.00 | 1 | 1010.1 |
| 20260508100554 | 2 | 253 | 0.0 | 3.2 | 0.00 | 0.00 | 0.00 | 1 | 1010.0 |
| 20260508100052 | 2 | 253 | 1.6 | 3.2 | 0.00 | 0.00 | 0.00 | 1 | 1010.0 |
| 20260508095551 | 2 | 253 | 0.0 | 4.8 | 0.00 | 0.00 | 0.00 | 1 | 1010.0 |
| 20260508095053 | 3 | 253 | 3.2 | 4.8 | 0.00 | 0.00 | 0.00 | 1 | 1009.9 |
| 20260508094603 | 3 | 253 | 3.2 | 4.8 | 0.00 | 0.00 | 0.00 | 1 | 1009.9 |
| 20260508094047 | 4 | 253 | 0.0 | 3.2 | 0.00 | 0.00 | 0.00 | 1 | 1009.8 |
| 20260508093547 | 4 | 253 | 0.0 | 4.8 | 0.00 | 0.00 | 0.00 | 1 | 1009.9 |
| 20260508093045 | 4 | 253 | 1.6 | 4.8 | 0.00 | 0.00 | 0.00 | 1 | 1009.8 |
| 20260508092542 | 5 | 253 | 0.0 | 0.0 | 0.00 | 0.00 | 0.00 | 1 | 1009.8 |
| 20260508092041 | 5 | 253 | 0.0 | 0.0 | 0.00 | 0.00 | 0.00 | 1 | 1009.8 |
| 20260508091541 | 5 | 253 | 0.0 | 3.2 | 0.00 | 0.00 | 0.00 | 1 | 1009.8 |
| 20260508091039 | 4 | 253 | 0.0 | 3.2 | 0.00 | 0.00 | 0.00 | 1 | 1009.8 |
| 20260508090539 | 4 | 253 | 1.6 | 4.8 | 0.00 | 0.00 | 0.00 | 1 | 1009.8 |
| 20260508090037 | 5 | 253 | 3.2 | 4.8 | 0.00 | 0.00 | 0.00 | 1 | 1009.8 |
| 20260508085535 | 5 | 253 | 1.6 | 4.8 | 0.00 | 0.00 | 0.00 | 1 | 1009.8 |
| 20260508085033 | 5 | 253 | 0.0 | 0.0 | 0.00 | 0.00 | 0.00 | 1 | 1009.8 |
| 20260508084533 | 5 | 253 | 0.0 | 0.0 | 0.00 | 0.00 | 0.00 | 1 | 1009.9 |
| 20260508084035 | 5 | 253 | 0.0 | 0.0 | 0.00 | 0.00 | 0.00 | 1 | 1009.9 |
| 20260508083529 | 4 | 253 | 0.0 | 0.0 | 0.00 | 0.00 | 0.00 | 1 | 1009.9 |
| 20260508083046 | 4 | 253 | 0.0 | 0.0 | 0.00 | 0.00 | 0.00 | 1 | 1009.9 |
| 20260508082515 | 5 | 253 | 0.0 | 0.0 | 0.00 | 0.00 | 0.00 | 1 | 1010.0 |
| 20260508082020 | 5 | 253 | 0.0 | 0.0 | 0.00 | 0.00 | 0.00 | 1 | 1010.0 |
| 20260508081513 | 5 | 253 | 0.0 | 0.0 | 0.00 | 0.00 | 0.00 | 1 | 1010.0 |
| 20260508081010 | 5 | 253 | 0.0 | 0.0 | 0.00 | 0.00 | 0.00 | 1 | 1009.9 |
| 20260508080510 | 4 | 253 | 0.0 | 0.0 | 0.00 | 0.00 | 0.00 | 1 | 1009.9 |
| 20260508075506 | 4 | 253 | 0.0 | 0.0 | 0.00 | 0.00 | 0.00 | 3 | 1010.0 |
| 20260508075004 | 5 | 253 | 0.0 | 3.2 | 0.00 | 0.00 | 0.00 | 2 | 1009.9 |
| 20260508074502 | 5 | 253 | 0.0 | 3.2 | 0.00 | 0.00 | 0.00 | 1 | 1009.9 |
| 20260508074002 | 5 | 253 | 0.0 | 3.2 | 0.00 | 0.00 | 0.00 | 1 | 1009.9 |
| 20260508073601 | 5 | 253 | 0.0 | 3.2 | 0.00 | 0.00 | 0.00 | 1 | 1009.9 |
| 20260508073101 | 5 | 253 | 0.0 | 0.0 | 0.00 | 0.00 | 0.00 | 1 | 1009.9 |
| 20260508072558 | 5 | 253 | 0.0 | 3.2 | 0.00 | 0.00 | 0.00 | 1 | 1009.8 |
| 20260508072056 | 5 | 253 | 0.0 | 3.2 | 0.00 | 0.00 | 0.00 | 1 | 1009.7 |
| 20260508071557 | 5 | 253 | 1.6 | 3.2 | 0.00 | 0.00 | 0.00 | 1 | 1009.8 |
| 20260508071053 | 5 | 253 | 0.0 | 3.2 | 0.00 | 0.00 | 0.00 | 1 | 1009.8 |
| 20260508070552 | 5 | 253 | 0.0 | 0.0 | 0.00 | 0.00 | 0.00 | 1 | 1009.8 |
| 20260508070053 | 5 | 253 | 0.0 | 0.0 | 0.00 | 0.00 | 0.00 | 7 | 1009.8 |
| 20260508065548 | 5 | 253 | 0.0 | 1.6 | 0.00 | 0.00 | 0.00 | 16 | 1009.7 |
| 20260508065047 | 5 | 253 | 0.0 | 6.4 | 0.00 | 0.00 | 0.00 | 25 | 1009.7 |
| 20260508064604 | 6 | 253 | 4.8 | 6.4 | 0.00 | 0.00 | 0.00 | 22 | 1009.7 |
| 20260508064044 | 7 | 253 | 0.0 | 4.8 | 0.00 | 0.00 | 0.00 | 13 | 1009.7 |
| 20260508063543 | 7 | 253 | 3.2 | 4.8 | 0.00 | 0.00 | 0.00 | 12 | 1009.6 |
| 20260508063044 | 7 | 253 | 0.0 | 4.8 | 0.00 | 0.00 | 0.00 | 7 | 1009.5 |
| 20260508062540 | 7 | 253 | 0.0 | 6.4 | 0.00 | 0.00 | 0.00 | 6 | 1009.6 |
| 20260508062039 | 7 | 253 | 1.6 | 6.4 | 0.00 | 0.00 | 0.00 | 13 | 1009.6 |
| 20260508061542 | 7 | 253 | 1.6 | 6.4 | 0.00 | 0.00 | 0.00 | 14 | 1009.7 |
| 20260508061037 | 7 | 253 | 3.2 | 6.4 | 0.00 | 0.00 | 0.00 | 14 | 1009.6 |
| 20260508060537 | 7 | 253 | 4.8 | 6.4 | 0.00 | 0.00 | 0.00 | 14 | 1009.5 |
| 20260508060034 | 7 | 263 | 1.6 | 4.8 | 0.00 | 0.00 | 0.00 | 15 | 1009.5 |
| 20260508055531 | 8 | 267 | 3.2 | 4.8 | 0.00 | 0.00 | 0.00 | 10 | 1009.3 |
| 20260508055030 | 8 | 141 | 0.0 | 3.2 | 0.00 | 0.00 | 0.00 | 10 | 1009.2 |
| 20260508054529 | 8 | 141 | 0.0 | 3.2 | 0.00 | 0.00 | 0.00 | 1 | 1009.2 |
| 20260508054026 | 7 | 141 | 0.0 | 3.2 | 0.00 | 0.00 | 0.00 | 22 | 1009.2 |
| 20260508053526 | 7 | 141 | 0.0 | 8.0 | 0.00 | 0.00 | 0.00 | 37 | 1009.2 |
| 20260508053026 | 7 | 141 | 4.8 | 8.0 | 0.00 | 0.00 | 0.00 | 41 | 1009.2 |
| 20260508052525 | 8 | 359 | 0.0 | 4.8 | 0.00 | 0.00 | 0.00 | 34 | 1009.0 |
| 20260508052020 | 9 | 359 | 0.0 | 3.2 | 0.00 | 0.00 | 0.00 | 15 | 1008.9 |
| 20260508051519 | 9 | 359 | 0.0 | 1.6 | 0.00 | 0.00 | 0.00 | 6 | 1008.8 |
| 20260508051018 | 9 | 359 | 0.0 | 1.6 | 0.00 | 0.00 | 0.00 | 18 | 1008.8 |
| 20260508050516 | 8 | 359 | 0.0 | 0.0 | 0.00 | 0.00 | 0.00 | 30 | 1008.7 |
| 20260508050020 | 8 | 359 | 0.0 | 0.0 | 0.00 | 0.00 | 0.00 | 43 | 1008.8 |
| 20260508045513 | 9 | 359 | 0.0 | 0.0 | 0.00 | 0.00 | 0.00 | 44 | 1008.7 |
| 20260508045012 | 9 | 359 | 0.0 | 0.0 | 0.00 | 0.00 | 0.00 | 46 | 1008.6 |
| 20260508044511 | 10 | 359 | 0.0 | 4.8 | 0.00 | 0.00 | 0.00 | 48 | 1008.6 |
| 20260508044010 | 10 | 359 | 0.0 | 4.8 | 0.00 | 0.00 | 0.00 | 50 | 1008.6 |
| 20260508043508 | 10 | 359 | 1.6 | 8.0 | 0.00 | 0.00 | 0.00 | 49 | 1008.6 |
| 20260508043007 | 10 | 359 | 1.6 | 8.0 | 0.00 | 0.00 | 0.00 | 51 | 1008.7 |
| 20260508042505 | 11 | 359 | 3.2 | 6.4 | 0.00 | 0.00 | 0.00 | 52 | 1008.6 |
| 20260508042003 | 11 | 359 | 0.0 | 3.2 | 0.00 | 0.00 | 0.00 | 53 | 1008.7 |
| 20260508041509 | 11 | 359 | 0.0 | 3.2 | 0.00 | 0.00 | 0.00 | 53 | 1008.6 |
| 20260508041001 | 12 | 359 | 0.0 | 1.6 | 0.00 | 0.00 | 0.00 | 53 | 1008.5 |
| 20260508040559 | 12 | 359 | 0.0 | 1.6 | 0.00 | 0.00 | 0.00 | 52 | 1008.5 |
| 20260508040111 | 12 | 359 | 0.0 | 6.4 | 0.00 | 0.00 | 0.00 | 52 | 1008.4 |
| 20260508035556 | 13 | 359 | 0.0 | 6.4 | 0.00 | 0.00 | 0.00 | 52 | 1008.4 |
| 20260508035501 | 13 | 359 | 1.6 | 6.4 | 0.00 | 0.00 | 0.00 | 52 | 1008.4 |
| 20260508035057 | 13 | 359 | 0.0 | 3.2 | 0.00 | 0.00 | 0.00 | 51 | 1008.4 |
| 20260508034556 | 13 | 359 | 0.0 | 3.2 | 0.00 | 0.00 | 0.00 | 50 | 1008.4 |
| 20260508034051 | 14 | 355 | 0.0 | 3.2 | 0.00 | 0.00 | 0.00 | 49 | 1008.2 |
| 20260508033552 | 15 | 359 | 0.0 | 4.8 | 0.00 | 0.00 | 0.00 | 48 | 1008.2 |
| 20260508033048 | 15 | 359 | 1.6 | 6.4 | 0.00 | 0.00 | 0.00 | 46 | 1008.1 |
| 20260508032547 | 15 | 359 | 1.6 | 8.0 | 0.00 | 0.00 | 0.00 | 46 | 1008.0 |
| 20260508032047 | 15 | 46 | 0.0 | 0.0 | 0.00 | 0.00 | 0.00 | 48 | 1008.1 |
| 20260508031544 | 14 | 335 | 0.0 | 0.0 | 0.00 | 0.00 | 0.00 | 48 | 1008.1 |
| 20260508031044 | 13 | 11 | 0.0 | 0.0 | 0.00 | 0.00 | 0.00 | 49 | 1008.0 |
| 20260508030542 | 13 | 11 | 0.0 | 0.0 | 0.00 | 0.00 | 0.00 | 49 | 1008.0 |
| 20260508030050 | 13 | 11 | 0.0 | 0.0 | 0.00 | 0.00 | 0.00 | 50 | 1007.9 |
| 20260508025539 | 13 | 245 | 0.0 | 0.0 | 0.00 | 0.00 | 0.00 | 50 | 1007.8 |
| 20260508025038 | 13 | 245 | 0.0 | 0.0 | 0.00 | 0.00 | 0.00 | 50 | 1007.7 |
| 20260508024546 | 14 | 245 | 0.0 | 6.4 | 0.00 | 0.00 | 0.00 | 48 | 1007.6 |
| 20260508024037 | 15 | 245 | 3.2 | 9.7 | 0.00 | 0.00 | 0.00 | 47 | 1007.5 |
| 20260508023534 | 15 | 250 | 6.4 | 9.7 | 0.00 | 0.00 | 0.00 | 46 | 1007.5 |
| 20260508023036 | 16 | 242 | 4.8 | 9.7 | 0.00 | 0.00 | 0.00 | 45 | 1007.6 |
| 20260508022531 | 17 | 246 | 0.0 | 9.7 | 0.00 | 0.00 | 0.00 | 42 | 1007.5 |
| 20260508022030 | 17 | 248 | 3.2 | 9.7 | 0.00 | 0.00 | 0.00 | 40 | 1007.5 |
| 20260508021528 | 18 | 213 | 0.0 | 4.8 | 0.00 | 0.00 | 0.00 | 39 | 1007.4 |
| 20260508021029 | 19 | 247 | 0.0 | 4.8 | 0.00 | 0.00 | 0.00 | 39 | 1007.5 |
| 20260508020526 | 20 | 248 | 1.6 | 6.4 | 0.00 | 0.00 | 0.00 | 38 | 1007.5 |
| 20260508020024 | 20 | 219 | 1.6 | 6.4 | 0.00 | 0.00 | 0.00 | 36 | 1007.5 |
| 20260508015523 | 21 | 224 | 1.6 | 6.4 | 0.00 | 0.00 | 0.00 | 35 | 1007.4 |
| 20260508015021 | 21 | 224 | 3.2 | 6.4 | 0.00 | 0.00 | 0.00 | 34 | 1007.5 |
| 20260508014530 | 22 | 258 | 3.2 | 6.4 | 0.00 | 0.00 | 0.00 | 33 | 1007.5 |
| 20260508014018 | 22 | 243 | 3.2 | 8.0 | 0.00 | 0.00 | 0.00 | 33 | 1007.6 |
| 20260508013518 | 22 | 253 | 3.2 | 11.3 | 0.00 | 0.00 | 0.00 | 33 | 1007.7 |
| 20260508013015 | 22 | 226 | 6.4 | 12.9 | 0.00 | 0.00 | 0.00 | 32 | 1007.8 |
| 20260508012518 | 22 | 244 | 4.8 | 11.3 | 0.00 | 0.00 | 0.00 | 31 | 1007.7 |
| 20260508012012 | 22 | 207 | 4.8 | 11.3 | 0.00 | 0.00 | 0.00 | 31 | 1007.8 |
| 20260508011510 | 22 | 263 | 3.2 | 14.5 | 0.00 | 0.00 | 0.00 | 29 | 1007.9 |
| 20260508011009 | 22 | 240 | 6.4 | 16.1 | 0.00 | 0.00 | 0.00 | 30 | 1007.9 |
| 20260508010508 | 22 | 267 | 6.4 | 17.7 | 0.00 | 0.00 | 0.00 | 29 | 1008.0 |
| 20260508010006 | 22 | 242 | 0.0 | 6.4 | 0.00 | 0.00 | 0.00 | 31 | 1008.0 |
| 20260508005513 | 22 | 226 | 3.2 | 6.4 | 0.00 | 0.00 | 0.00 | 31 | 1008.0 |
| 20260508005004 | 22 | 174 | 1.6 | 8.0 | 0.00 | 0.00 | 0.00 | 30 | 1008.0 |
| 20260508004502 | 22 | 263 | 4.8 | 14.5 | 0.00 | 0.00 | 0.00 | 31 | 1008.2 |
| 20260508004003 | 22 | 316 | 8.0 | 14.5 | 0.00 | 0.00 | 0.00 | 29 | 1008.2 |
| 20260508003559 | 22 | 268 | 6.4 | 11.3 | 0.00 | 0.00 | 0.00 | 29 | 1008.2 |
| 20260508003112 | 22 | 274 | 3.2 | 14.5 | 0.00 | 0.00 | 0.00 | 30 | 1008.3 |
| 20260508002556 | 22 | 335 | 4.8 | 25.7 | 0.00 | 0.00 | 0.00 | 29 | 1008.4 |
| 20260508002055 | 22 | 286 | 12.9 | 25.7 | 0.00 | 0.00 | 0.00 | 29 | 1008.4 |
| 20260508001553 | 22 | 291 | 11.3 | 20.9 | 0.00 | 0.00 | 0.00 | 29 | 1008.5 |
| 20260508001053 | 22 | 286 | 4.8 | 24.1 | 0.00 | 0.00 | 0.00 | 30 | 1008.5 |
| 20260508000551 | 23 | 315 | 14.5 | 24.1 | 0.00 | 0.00 | 0.00 | 28 | 1008.6 |
| 20260508000049 | 23 | 273 | 14.5 | 20.9 | 0.00 | 0.00 | 0.00 | 29 | 1008.6 |
| 20260507235548 | 22 | 306 | 14.5 | 20.9 | 0.00 | 0.00 | 0.00 | 28 | 1008.7 |
| 20260507235046 | 22 | 307 | 12.9 | 20.9 | 0.00 | 0.00 | 0.00 | 28 | 1008.7 |
| 20260507234545 | 22 | 240 | 9.7 | 20.9 | 0.00 | 0.00 | 0.00 | 28 | 1008.7 |
| 20260507234043 | 22 | 271 | 8.0 | 19.3 | 0.00 | 0.00 | 0.00 | 28 | 1008.8 |
| 20260507233542 | 22 | 323 | 11.3 | 20.9 | 0.00 | 0.00 | 0.00 | 27 | 1008.8 |
| 20260507233041 | 22 | 280 | 8.0 | 20.9 | 0.00 | 0.00 | 0.00 | 27 | 1008.9 |
| 20260507232538 | 22 | 305 | 11.3 | 27.4 | 0.00 | 0.00 | 0.00 | 27 | 1008.9 |
| 20260507232037 | 22 | 283 | 14.5 | 27.4 | 0.00 | 0.00 | 0.00 | 27 | 1009.1 |
| 20260507231539 | 23 | 336 | 12.9 | 20.9 | 0.00 | 0.00 | 0.00 | 27 | 1009.0 |
| 20260507231034 | 23 | 350 | 6.4 | 20.9 | 0.00 | 0.00 | 0.00 | 27 | 1009.1 |
| 20260507230535 | 23 | 345 | 11.3 | 29.0 | 0.00 | 0.00 | 0.00 | 26 | 1009.2 |
| 20260507230031 | 23 | 296 | 17.7 | 29.0 | 0.00 | 0.00 | 0.00 | 26 | 1009.2 |
| 20260507225530 | 23 | 276 | 9.7 | 29.0 | 0.00 | 0.00 | 0.00 | 26 | 1009.3 |
| 20260507225032 | 23 | 5 | 14.5 | 29.0 | 0.00 | 0.00 | 0.00 | 26 | 1009.3 |
| 20260507224528 | 23 | 294 | 12.9 | 24.1 | 0.00 | 0.00 | 0.00 | 27 | 1009.4 |
| 20260507224026 | 23 | 291 | 8.0 | 22.5 | 0.00 | 0.00 | 0.00 | 26 | 1009.4 |
| 20260507223528 | 23 | 282 | 6.4 | 20.9 | 0.00 | 0.00 | 0.00 | 27 | 1009.7 |
| 20260507223023 | 23 | 355 | 6.4 | 24.1 | 0.00 | 0.00 | 0.00 | 26 | 1009.7 |
| 20260507222522 | 23 | 300 | 8.0 | 33.8 | 0.00 | 0.00 | 0.00 | 26 | 1009.8 |
| 20260507222020 | 23 | 278 | 20.9 | 33.8 | 0.00 | 0.00 | 0.00 | 28 | 1009.8 |
| 20260507221518 | 23 | 274 | 17.7 | 29.0 | 0.00 | 0.00 | 0.00 | 27 | 1010.0 |
| 20260507221018 | 23 | 335 | 3.2 | 16.1 | 0.00 | 0.00 | 0.00 | 25 | 1010.0 |
| 20260507220515 | 23 | 253 | 8.0 | 16.1 | 0.00 | 0.00 | 0.00 | 27 | 1010.1 |
| 20260507220013 | 23 | 359 | 4.8 | 19.3 | 0.00 | 0.00 | 0.00 | 28 | 1010.1 |
| 20260507215513 | 22 | 55 | 11.3 | 20.9 | 0.00 | 0.00 | 0.00 | 30 | 1010.2 |
| 20260507215010 | 23 | 94 | 9.7 | 17.7 | 0.00 | 0.00 | 0.00 | 27 | 1010.2 |
| 20260507214509 | 23 | 77 | 4.8 | 20.9 | 0.00 | 0.00 | 0.00 | 28 | 1010.3 |
| 20260507214008 | 22 | 43 | 14.5 | 20.9 | 0.00 | 0.00 | 0.00 | 29 | 1010.4 |
| 20260507213506 | 22 | 8 | 8.0 | 22.5 | 0.00 | 0.00 | 0.00 | 30 | 1010.5 |
| 20260507213005 | 22 | 20 | 16.1 | 27.4 | 0.00 | 0.00 | 0.00 | 30 | 1010.6 |
| 20260507212503 | 22 | 31 | 16.1 | 27.4 | 0.00 | 0.00 | 0.00 | 28 | 1010.6 |
| 20260507212002 | 22 | 359 | 11.3 | 25.7 | 0.00 | 0.00 | 0.00 | 29 | 1010.7 |
| 20260507211601 | 22 | 275 | 9.7 | 25.7 | 0.00 | 0.00 | 0.00 | 27 | 1010.7 |
| 20260507211058 | 23 | 32 | 8.0 | 22.5 | 0.00 | 0.00 | 0.00 | 28 | 1010.9 |
| 20260507210557 | 23 | 40 | 9.7 | 19.3 | 0.00 | 0.00 | 0.00 | 28 | 1011.0 |
| 20260507210056 | 23 | 24 | 8.0 | 20.9 | 0.00 | 0.00 | 0.00 | 27 | 1011.1 |
| 20260507205556 | 23 | 16 | 11.3 | 20.9 | 0.00 | 0.00 | 0.00 | 29 | 1011.1 |
| 20260507205052 | 23 | 328 | 6.4 | 25.7 | 0.00 | 0.00 | 0.00 | 28 | 1011.3 |
| 20260507204600 | 22 | 33 | 12.9 | 25.7 | 0.00 | 0.00 | 0.00 | 31 | 1011.4 |
| 20260507204051 | 22 | 47 | 9.7 | 17.7 | 0.00 | 0.00 | 0.00 | 29 | 1011.4 |
| 20260507203548 | 21 | 47 | 8.0 | 16.1 | 0.00 | 0.00 | 0.00 | 29 | 1011.5 |
| 20260507203048 | 22 | 7 | 6.4 | 19.3 | 0.00 | 0.00 | 0.00 | 28 | 1011.7 |
| 20260507202545 | 22 | 350 | 4.8 | 17.7 | 0.00 | 0.00 | 0.00 | 28 | 1011.7 |
| 20260507202043 | 22 | 18 | 9.7 | 17.7 | 0.00 | 0.00 | 0.00 | 27 | 1011.6 |
| 20260507201544 | 22 | 62 | 4.8 | 11.3 | 0.00 | 0.00 | 0.00 | 29 | 1011.7 |
| 20260507201041 | 22 | 74 | 4.8 | 24.1 | 0.00 | 0.00 | 0.00 | 29 | 1011.8 |
| 20260507200540 | 22 | 359 | 11.3 | 25.7 | 0.00 | 0.00 | 0.00 | 29 | 1011.8 |
| 20260507200040 | 21 | 345 | 12.9 | 20.9 | 0.00 | 0.00 | 0.00 | 30 | 1011.9 |
| 20260507195540 | 21 | 282 | 12.9 | 22.5 | 0.00 | 0.00 | 0.00 | 31 | 1011.9 |
| 20260507195040 | 21 | 240 | 12.9 | 25.7 | 0.00 | 0.00 | 0.00 | 32 | 1012.1 |
| 20260507194535 | 21 | 248 | 14.5 | 24.1 | 0.00 | 0.00 | 0.00 | 30 | 1012.0 |
| 20260507194034 | 20 | 220 | 6.4 | 19.3 | 0.00 | 0.00 | 0.00 | 31 | 1012.1 |
| 20260507193532 | 20 | 258 | 6.4 | 17.7 | 0.00 | 0.00 | 0.00 | 31 | 1012.3 |
| 20260507193032 | 20 | 219 | 6.4 | 17.7 | 0.00 | 0.00 | 0.00 | 31 | 1012.4 |
| 20260507192527 | 20 | 232 | 8.0 | 22.5 | 0.00 | 0.00 | 0.00 | 31 | 1012.4 |
| 20260507192026 | 21 | 187 | 11.3 | 30.6 | 0.00 | 0.00 | 0.00 | 31 | 1012.5 |
| 20260507191525 | 21 | 237 | 16.1 | 32.2 | 0.00 | 0.00 | 0.00 | 29 | 1012.5 |
| 20260507191027 | 21 | 245 | 14.5 | 27.4 | 0.00 | 0.00 | 0.00 | 31 | 1012.5 |
| 20260507190522 | 21 | 257 | 11.3 | 25.7 | 0.00 | 0.00 | 0.00 | 30 | 1012.7 |
| 20260507190034 | 21 | 225 | 12.9 | 25.7 | 0.00 | 0.00 | 0.00 | 30 | 1012.7 |
| 20260507185519 | 21 | 252 | 8.0 | 16.1 | 0.00 | 0.00 | 0.00 | 30 | 1012.9 |
| 20260507185020 | 21 | 219 | 9.7 | 19.3 | 0.00 | 0.00 | 0.00 | 30 | 1012.9 |
| 20260507184525 | 20 | 177 | 11.3 | 19.3 | 0.00 | 0.00 | 0.00 | 29 | 1013.0 |
| 20260507184014 | 21 | 213 | 11.3 | 20.9 | 0.00 | 0.00 | 0.00 | 32 | 1013.1 |
| 20260507183513 | 21 | 205 | 11.3 | 24.1 | 0.00 | 0.00 | 0.00 | 30 | 1013.2 |
| 20260507183018 | 20 | 203 | 9.7 | 19.3 | 0.00 | 0.00 | 0.00 | 30 | 1013.2 |
| 20260507182510 | 20 | 191 | 11.3 | 22.5 | 0.00 | 0.00 | 0.00 | 29 | 1013.4 |
| 20260507182011 | 20 | 256 | 16.1 | 22.5 | 0.00 | 0.00 | 0.00 | 30 | 1013.4 |
| 20260507181507 | 20 | 201 | 9.7 | 16.1 | 0.00 | 0.00 | 0.00 | 31 | 1013.5 |
| 20260507181005 | 20 | 167 | 9.7 | 19.3 | 0.00 | 0.00 | 0.00 | 30 | 1013.6 |
| 20260507180503 | 20 | 240 | 6.4 | 16.1 | 0.00 | 0.00 | 0.00 | 31 | 1013.7 |
| 20260507180007 | 20 | 195 | 8.0 | 16.1 | 0.00 | 0.00 | 0.00 | 31 | 1013.8 |
| 20260507175501 | 20 | 195 | 8.0 | 25.7 | 0.00 | 0.00 | 0.00 | 31 | 1013.9 |
| 20260507175100 | 20 | 223 | 12.9 | 25.7 | 0.00 | 0.00 | 0.00 | 31 | 1014.0 |
| 20260507174559 | 20 | 181 | 9.7 | 20.9 | 0.00 | 0.00 | 0.00 | 32 | 1013.9 |
| 20260507174056 | 20 | 245 | 11.3 | 22.5 | 0.00 | 0.00 | 0.00 | 31 | 1014.2 |
| 20260507173555 | 20 | 163 | 16.1 | 22.5 | 0.00 | 0.00 | 0.00 | 31 | 1014.2 |
| 20260507173056 | 20 | 182 | 14.5 | 20.9 | 0.00 | 0.00 | 0.00 | 31 | 1014.1 |
| 20260507172552 | 19 | 225 | 9.7 | 24.1 | 0.00 | 0.00 | 0.00 | 31 | 1014.2 |
| 20260507172051 | 19 | 154 | 16.1 | 25.7 | 0.00 | 0.00 | 0.00 | 31 | 1014.4 |
| 20260507171554 | 18 | 150 | 16.1 | 25.7 | 0.00 | 0.00 | 0.00 | 31 | 1014.5 |
| 20260507171047 | 18 | 192 | 14.5 | 19.3 | 0.00 | 0.00 | 0.00 | 31 | 1014.5 |
| 20260507170546 | 18 | 157 | 16.1 | 20.9 | 0.00 | 0.00 | 0.00 | 32 | 1014.5 |
| 20260507170048 | 18 | 186 | 16.1 | 22.5 | 0.00 | 0.00 | 0.00 | 32 | 1014.7 |
| 20260507165544 | 18 | 221 | 16.1 | 24.1 | 0.00 | 0.00 | 0.00 | 33 | 1014.8 |
| 20260507165045 | 17 | 170 | 16.1 | 24.1 | 0.00 | 0.00 | 0.00 | 33 | 1014.7 |
| 20260507164540 | 17 | 182 | 12.9 | 22.5 | 0.00 | 0.00 | 0.00 | 34 | 1014.9 |
| 20260507164039 | 17 | 190 | 16.1 | 24.1 | 0.00 | 0.00 | 0.00 | 34 | 1015.0 |
| 20260507163540 | 17 | 166 | 17.7 | 22.5 | 0.00 | 0.00 | 0.00 | 33 | 1015.1 |
| 20260507163036 | 17 | 144 | 17.7 | 20.9 | 0.00 | 0.00 | 0.00 | 33 | 1015.0 |
| 20260507162535 | 17 | 151 | 14.5 | 20.9 | 0.00 | 0.00 | 0.00 | 36 | 1015.0 |
| 20260507162032 | 17 | 150 | 17.7 | 24.1 | 0.00 | 0.00 | 0.00 | 35 | 1015.1 |
| 20260507161531 | 17 | 195 | 16.1 | 22.5 | 0.00 | 0.00 | 0.00 | 36 | 1015.2 |
| 20260507161029 | 16 | 161 | 17.7 | 27.4 | 0.00 | 0.00 | 0.00 | 37 | 1015.3 |
| 20260507160530 | 16 | 154 | 17.7 | 22.5 | 0.00 | 0.00 | 0.00 | 38 | 1015.4 |
| 20260507160026 | 16 | 165 | 16.1 | 24.1 | 0.00 | 0.00 | 0.00 | 39 | 1015.5 |
| 20260507155525 | 15 | 110 | 14.5 | 27.4 | 0.00 | 0.03 | 0.00 | 40 | 1015.6 |
| 20260507155023 | 15 | 146 | 17.7 | 27.4 | 0.00 | 0.03 | 0.00 | 41 | 1015.7 |
| 20260507154522 | 14 | 156 | 19.3 | 29.0 | 0.00 | 0.03 | 0.00 | 39 | 1015.7 |
| 20260507154021 | 13 | 153 | 19.3 | 27.4 | 0.00 | 0.03 | 0.00 | 41 | 1015.8 |
| 20260507153519 | 13 | 153 | 17.7 | 22.5 | 0.00 | 0.03 | 0.00 | 42 | 1016.0 |
| 20260507153018 | 12 | 162 | 14.5 | 22.5 | 0.00 | 0.03 | 0.00 | 43 | 1016.3 |
| 20260507152516 | 12 | 170 | 14.5 | 22.5 | 0.00 | 0.03 | 0.00 | 43 | 1016.2 |
| 20260507152014 | 12 | 156 | 14.5 | 22.5 | 0.00 | 0.03 | 0.00 | 43 | 1016.3 |
| 20260507151515 | 13 | 157 | 14.5 | 22.5 | 0.00 | 0.03 | 0.00 | 43 | 1016.4 |
| 20260507151011 | 13 | 159 | 16.1 | 22.5 | 0.00 | 0.03 | 0.00 | 43 | 1016.4 |
| 20260507150510 | 13 | 166 | 16.1 | 22.5 | 0.00 | 0.03 | 0.00 | 43 | 1016.4 |
| 20260507150012 | 12 | 167 | 17.7 | 24.1 | 0.00 | 0.03 | 0.00 | 46 | 1016.4 |
| 20260507145507 | 11 | 169 | 14.5 | 22.5 | 0.00 | 0.03 | 0.00 | 50 | 1016.5 |
| 20260507145005 | 10 | 190 | 14.5 | 20.9 | 0.00 | 0.03 | 0.00 | 51 | 1016.6 |
| 20260507144504 | 10 | 175 | 12.9 | 19.3 | 0.00 | 0.03 | 0.00 | 49 | 1016.7 |
| 20260507144003 | 8 | 167 | 11.3 | 16.1 | 0.00 | 0.03 | 0.00 | 40 | 1016.7 |
| 20260507143603 | 8 | 187 | 11.3 | 16.1 | 0.00 | 0.03 | 0.00 | 23 | 1016.8 |
| 20260507143102 | 7 | 153 | 11.3 | 14.5 | 0.00 | 0.03 | 0.00 | 1 | 1016.8 |
| 20260507142558 | 7 | 178 | 8.0 | 11.3 | 0.00 | 0.03 | 0.00 | 1 | 1016.8 |
| 20260507142056 | 6 | 170 | 6.4 | 11.3 | 0.00 | 0.03 | 0.00 | 1 | 1016.8 |
| 20260507141602 | 6 | 175 | 8.0 | 12.9 | 0.00 | 0.03 | 0.00 | 1 | 1016.7 |
| 20260507141053 | 6 | 170 | 9.7 | 12.9 | 0.00 | 0.03 | 0.00 | 1 | 1016.7 |
| 20260507140552 | 5 | 164 | 9.7 | 12.9 | 0.00 | 0.03 | 0.00 | 1 | 1016.6 |
| 20260507140107 | 5 | 175 | 9.7 | 14.5 | 0.00 | 0.03 | 0.00 | 1 | 1016.6 |
| 20260507135548 | 4 | 166 | 11.3 | 14.5 | 0.00 | 0.03 | 0.00 | 1 | 1016.6 |
| 20260507135048 | 3 | 173 | 8.0 | 11.3 | 0.00 | 0.03 | 0.00 | 1 | 1016.6 |
| 20260507134546 | 3 | 148 | 6.4 | 12.9 | 0.00 | 0.03 | 0.00 | 1 | 1016.6 |
| 20260507134044 | 2 | 158 | 8.0 | 11.3 | 0.00 | 0.03 | 0.00 | 1 | 1016.6 |
| 20260507133543 | 2 | 158 | 6.4 | 12.9 | 0.00 | 0.03 | 0.00 | 1 | 1016.5 |